SV7JLF-3 Weather Reports


Display with metric or nautical units.
time (UTC)temp
F
wind
direction
speed
MPH
gust
MPH
rain 1hr
in
rain 24hr
in
rain mn
in
humidity
%
barometer
mb
20260504003040 43 234 2.0 0.0 0.00 0.00 0.00 72 1019.7
20260504003019 43 231 2.0 0.0 0.00 0.00 0.00 72 1019.7
20260504003005 43 243 3.0 3.0 0.00 0.00 0.00 72 1019.4
20260504002551 44 229 2.0 0.0 0.00 0.00 0.00 72 1019.7
20260504002026 44 229 3.0 0.0 0.00 0.00 0.00 71 1019.8
20260504002005 44 229 3.0 3.0 0.00 0.00 0.00 71 1019.5
20260504001543 44 229 3.0 0.0 0.00 0.00 0.00 70 1019.6
20260504001505 43 229 3.0 0.0 0.00 0.00 0.00 70 1019.7
20260504001031 44 320 4.0 0.0 0.00 0.00 0.00 70 1019.7
20260504001005 44 355 3.0 7.0 0.00 0.00 0.00 70 1019.4
20260504000527 44 202 5.0 0.0 0.00 0.00 0.00 69 1019.7
20260504000042 44 224 7.0 0.0 0.00 0.00 0.00 70 1019.7
20260504000012 44 212 7.0 0.0 0.00 0.00 0.00 70 1019.7
20260504000004 44 209 6.0 12.0 0.00 0.00 0.00 70 1019.2
20260503235556 44 227 7.0 0.0 0.00 0.00 0.00 70 1019.5
20260503235025 44 221 6.0 0.0 0.00 0.00 0.00 70 1019.6
20260503235004 44 226 7.0 10.0 0.00 0.00 0.00 70 1019.2
20260503234626 43 225 6.0 0.0 0.00 0.00 0.00 71 1019.5
20260503234559 43 229 6.0 0.0 0.00 0.00 0.00 71 1019.6
20260503234031 43 238 5.0 0.0 0.00 0.00 0.00 72 1019.5
20260503234005 43 224 6.0 9.0 0.00 0.00 0.00 72 1019.3
20260503233523 43 195 6.0 0.0 0.00 0.00 0.00 72 1019.5
20260503233109 43 229 6.0 0.0 0.00 0.00 0.00 72 1019.7
20260503233040 43 232 6.0 0.0 0.00 0.00 0.00 72 1019.6
20260503233005 43 236 5.0 9.0 0.00 0.00 0.00 72 1019.3
20260503232538 43 241 5.0 0.0 0.00 0.00 0.00 72 1019.6
20260503232025 44 257 5.0 0.0 0.00 0.00 0.00 71 1019.6
20260503232005 44 251 5.0 8.0 0.00 0.00 0.00 71 1019.3
20260503231617 44 277 5.0 0.0 0.00 0.00 0.00 70 1019.7
20260503231541 44 267 5.0 0.0 0.00 0.00 0.00 70 1019.6
20260503231059 45 288 5.0 0.0 0.00 0.00 0.00 69 1019.5
20260503231004 45 272 4.0 10.0 0.00 0.00 0.00 69 1019.2
20260503230558 45 294 6.0 0.0 0.00 0.00 0.00 68 1019.4
20260503230047 45 306 6.0 0.0 0.00 0.00 0.00 69 1019.6
20260503230017 44 293 6.0 0.0 0.00 0.00 0.00 69 1019.5
20260503225533 45 207 6.0 0.0 0.00 0.00 0.00 68 1019.5
20260503225029 45 200 7.0 0.0 0.00 0.00 0.00 68 1019.5
20260503225005 45 209 6.0 9.0 0.00 0.00 0.00 68 1019.2
20260503224538 45 199 6.0 0.0 0.00 0.00 0.00 68 1019.4
20260503224518 44 208 6.0 0.0 0.00 0.00 0.00 68 1019.5
20260503224029 45 211 5.0 0.0 0.00 0.00 0.00 68 1019.4
20260503224005 45 204 6.0 8.0 0.00 0.00 0.00 68 1019.2
20260503223539 45 211 4.0 0.0 0.00 0.00 0.00 68 1019.6
20260503223057 45 234 4.0 0.0 0.00 0.00 0.00 68 1019.6
20260503223007 45 232 4.0 0.0 0.00 0.00 0.00 68 1019.5
20260503223005 45 233 3.0 8.0 0.00 0.00 0.00 68 1019.3
20260503222526 45 232 4.0 0.0 0.00 0.00 0.00 68 1019.6
20260503222041 45 223 5.0 0.0 0.00 0.00 0.00 68 1019.7
20260503222006 45 227 3.0 9.0 0.00 0.00 0.00 68 1019.4
20260503221536 45 224 5.0 0.0 0.00 0.00 0.00 69 1019.5
20260503221512 44 223 5.0 0.0 0.00 0.00 0.00 69 1019.6
20260503221042 45 217 4.0 0.0 0.00 0.00 0.00 70 1019.5
20260503221005 45 216 4.0 6.0 0.00 0.00 0.00 70 1019.2
20260503220538 45 207 4.0 0.0 0.00 0.00 0.00 70 1019.5
20260503220048 45 206 3.0 0.0 0.00 0.00 0.00 70 1019.6
20260503220008 45 207 3.0 0.0 0.00 0.00 0.00 70 1019.7
20260503215939 45 208 4.0 5.0 0.00 0.00 0.00 70 1019.2
20260503215522 46 223 2.0 0.0 0.00 0.00 0.00 70 1019.5
20260503215015 46 275 2.0 0.0 0.00 0.00 0.00 70 1019.4
20260503214937 46 275 1.0 6.0 0.00 0.00 0.00 70 1019.1
20260503214631 46 275 3.0 0.0 0.00 0.00 0.00 69 1019.5
20260503214532 46 275 3.0 0.0 0.00 0.00 0.00 69 1019.5
20260503213959 47 277 4.0 0.0 0.00 0.00 0.00 68 1019.5
20260503213938 47 278 4.0 10.0 0.00 0.00 0.00 68 1019.1
20260503213513 47 297 6.0 0.0 0.00 0.00 0.00 67 1019.4
20260503213112 47 290 6.0 0.0 0.00 0.00 0.00 65 1019.4
20260503213009 47 297 5.0 0.0 0.00 0.00 0.00 65 1019.2
20260503212937 47 289 7.0 10.0 0.00 0.00 0.00 65 1019.0
20260503212513 48 308 3.0 0.0 0.00 0.00 0.00 64 1019.4
20260503212009 48 211 3.0 0.0 0.00 0.00 0.00 60 1019.4
20260503211513 48 162 4.0 0.0 0.00 0.00 0.00 60 1019.2
20260503211458 49 176 4.0 0.0 0.00 0.00 0.00 60 1019.2
20260503211013 49 162 4.0 0.0 0.00 0.00 0.00 59 1019.3
20260503210937 49 161 3.0 6.0 0.00 0.00 0.00 59 1018.9
20260503210510 49 171 5.0 0.0 0.00 0.00 0.00 59 1019.3
20260503210019 48 171 4.0 0.0 0.00 0.00 0.00 59 1019.2
20260503210000 49 167 4.0 0.0 0.00 0.00 0.00 59 1019.2
20260503205512 49 163 4.0 0.0 0.00 0.00 0.00 59 1019.1
20260503205029 49 164 4.0 0.0 0.00 0.00 0.00 59 1019.1
20260503204938 49 161 5.0 7.0 0.00 0.00 0.00 59 1018.8
20260503204604 49 155 4.0 0.0 0.00 0.00 0.00 58 1019.2
20260503204503 49 157 4.0 0.0 0.00 0.00 0.00 58 1019.2
20260503204019 49 146 3.0 0.0 0.00 0.00 0.00 59 1019.3
20260503203511 50 136 4.0 0.0 0.00 0.00 0.00 59 1019.4
20260503203109 49 148 4.0 0.0 0.00 0.00 0.00 58 1019.4
20260503203007 50 154 4.0 0.0 0.00 0.00 0.00 58 1019.3
20260503202937 50 156 5.0 6.0 0.00 0.00 0.00 58 1019.0
20260503202509 50 157 5.0 0.0 0.00 0.00 0.00 58 1019.2
20260503202005 50 169 6.0 0.0 0.00 0.00 0.00 57 1019.2
20260503201938 50 156 5.0 10.0 0.00 0.00 0.00 57 1018.9
20260503201609 50 149 6.0 0.0 0.00 0.00 0.00 57 1019.3
20260503201519 50 175 6.0 0.0 0.00 0.00 0.00 58 1019.3
20260503201008 50 147 5.0 0.0 0.00 0.00 0.00 58 1019.5
20260503200937 50 149 6.0 8.0 0.00 0.00 0.00 58 1018.9
20260503200505 51 173 5.0 0.0 0.00 0.00 0.00 59 1019.1
20260503200115 50 150 4.0 0.0 0.00 0.00 0.00 59 1019.2
20260503200019 51 157 4.0 0.0 0.00 0.00 0.00 59 1019.2
20260503195937 51 155 5.0 8.0 0.00 0.00 0.00 59 1018.9
20260503195512 51 162 5.0 0.0 0.00 0.00 0.00 59 1019.1
20260503195005 52 150 7.0 0.0 0.00 0.00 0.00 58 1019.1
20260503194941 52 141 6.0 10.0 0.00 0.00 0.00 58 1018.9
20260503194620 51 141 7.0 0.0 0.00 0.00 0.00 58 1019.0
20260503194519 52 133 8.0 0.0 0.00 0.00 0.00 57 1019.1
20260503194008 52 137 8.0 0.0 0.00 0.00 0.00 58 1018.9
20260503193938 52 134 7.0 10.0 0.00 0.00 0.00 58 1018.8
20260503193505 52 147 7.0 0.0 0.00 0.00 0.00 58 1019.0
20260503193122 51 126 7.0 0.0 0.00 0.00 0.00 58 1019.2
20260503193017 52 123 7.0 0.0 0.00 0.00 0.00 58 1019.1
20260503192941 52 128 7.0 10.0 0.00 0.00 0.00 59 1018.8
20260503192508 52 128 6.0 0.0 0.00 0.00 0.00 58 1019.1
20260503192000 53 134 6.0 0.0 0.00 0.00 0.00 58 1019.1
20260503191522 53 136 7.0 0.0 0.00 0.00 0.00 57 1019.2
20260503191507 53 128 7.0 0.0 0.00 0.00 0.00 57 1019.2
20260503190956 54 138 7.0 0.0 0.00 0.00 0.00 55 1019.1
20260503190937 54 134 7.0 9.0 0.00 0.00 0.00 55 1018.8
20260503190511 54 134 7.0 0.0 0.00 0.00 0.00 54 1019.1
20260503190122 54 128 7.0 0.0 0.00 0.00 0.00 54 1019.0
20260503190025 54 124 7.0 0.0 0.00 0.00 0.00 54 1019.1
20260503185938 54 129 6.0 10.0 0.00 0.00 0.00 53 1018.8
20260503185538 55 131 8.0 0.0 0.00 0.00 0.00 53 1019.0
20260503185026 55 129 8.0 0.0 0.00 0.00 0.00 53 1019.1
20260503184937 55 124 7.0 12.0 0.00 0.00 0.00 53 1018.8
20260503184549 55 131 8.0 0.0 0.00 0.00 0.00 52 1019.2
20260503184523 55 137 8.0 0.0 0.00 0.00 0.00 52 1018.9
20260503184042 55 125 8.0 0.0 0.00 0.00 0.00 52 1018.8
20260503183937 55 129 8.0 12.0 0.00 0.00 0.00 52 1018.7
20260503183511 55 136 9.0 0.0 0.00 0.00 0.00 52 1018.7
20260503183117 55 124 7.0 0.0 0.00 0.00 0.00 53 1018.8
20260503183007 55 135 7.0 0.0 0.00 0.00 0.00 53 1018.9
20260503182937 55 135 9.0 12.0 0.00 0.00 0.00 53 1018.5
20260503182511 55 137 6.0 0.0 0.00 0.00 0.00 53 1018.8
20260503182009 56 126 6.0 0.0 0.00 0.00 0.00 53 1018.7
20260503181939 56 127 5.0 9.0 0.00 0.00 0.00 53 1018.6
20260503181636 55 123 7.0 0.0 0.00 0.00 0.00 51 1018.6
20260503181525 56 121 8.0 0.0 0.00 0.00 0.00 51 1018.7
20260503181024 56 123 8.0 0.0 0.00 0.00 0.00 50 1018.6
20260503180511 56 134 8.0 0.0 0.00 0.00 0.00 49 1018.4
20260503180050 55 130 7.0 0.0 0.00 0.00 0.00 49 1018.5
20260503180009 56 125 6.0 0.0 0.00 0.00 0.00 50 1018.5
20260503175938 56 128 8.0 10.0 0.00 0.00 0.00 50 1018.2
20260503175527 56 128 5.0 0.0 0.00 0.00 0.00 52 1018.4
20260503175023 56 131 5.0 0.0 0.00 0.00 0.00 52 1018.4
20260503174610 56 136 6.0 0.0 0.00 0.00 0.00 53 1018.5
20260503174510 56 132 6.0 0.0 0.00 0.00 0.00 53 1018.5
20260503174003 56 136 5.0 0.0 0.00 0.00 0.00 52 1018.4
20260503173938 56 138 6.0 8.0 0.00 0.00 0.00 52 1018.1
20260503173516 56 146 5.0 0.0 0.00 0.00 0.00 52 1018.4
20260503173116 56 149 5.0 0.0 0.00 0.00 0.00 52 1018.2
20260503173012 57 141 5.0 0.0 0.00 0.00 0.00 51 1018.3
20260503172938 57 142 5.0 8.0 0.00 0.00 0.00 52 1017.8
20260503172503 57 140 5.0 0.0 0.00 0.00 0.00 52 1018.3
20260503172013 57 135 5.0 0.0 0.00 0.00 0.00 52 1018.1
20260503171937 57 149 5.0 8.0 0.00 0.00 0.00 52 1017.9
20260503171523 57 147 4.0 0.0 0.00 0.00 0.00 50 1018.1
20260503171503 58 133 4.0 0.0 0.00 0.00 0.00 52 1018.0
20260503171013 58 132 3.0 0.0 0.00 0.00 0.00 51 1018.1
20260503170938 58 141 4.0 7.0 0.00 0.00 0.00 51 1017.5
20260503170513 58 126 4.0 0.0 0.00 0.00 0.00 49 1017.9
20260503160125 63 73 9.0 0.0 0.00 0.00 0.00 35 1017.4
20260503150938 64 59 10.0 14.0 0.00 0.00 0.00 35 1017.0
20260503150511 64 53 6.0 0.0 0.00 0.00 0.00 35 1017.2
20260503140107 64 65 10.0 0.0 0.00 0.00 0.00 33 1017.6
20260503131002 65 132 6.0 0.0 0.00 0.00 0.00 36 1017.7
20260503130938 65 57 6.0 18.0 0.00 0.00 0.00 35 1017.5
20260503130514 65 36 6.0 0.0 0.00 0.00 0.00 33 1017.7
20260503130135 64 313 5.0 0.0 0.00 0.00 0.00 32 1018.0
20260503110526 64 349 7.0 0.0 0.00 0.00 0.00 34 1018.7
20260503110106 63 268 6.0 0.0 0.00 0.00 0.00 41 1018.8
20260503100111 60 182 3.0 0.0 0.00 0.00 0.00 38 1018.8
20260503090513 59 13 4.0 0.0 0.00 0.00 0.00 40 1019.5
20260503081548 57 307 4.0 0.0 0.00 0.00 0.00 46 1019.7
20260503081509 58 309 4.0 0.0 0.00 0.00 0.00 49 1019.7
20260503081001 57 331 3.0 0.0 0.00 0.00 0.00 48 1019.7
20260503080939 57 340 3.0 8.0 0.00 0.00 0.00 48 1019.3
20260503080508 57 315 3.0 0.0 0.00 0.00 0.00 51 1019.7
20260503072939 56 208 1.0 5.0 0.00 0.00 0.00 50 1019.4
20260503072512 56 201 2.0 0.0 0.00 0.00 0.00 49 1019.5
20260503072029 56 287 2.0 0.0 0.00 0.00 0.00 49 1019.5
20260503071939 56 287 1.0 6.0 0.00 0.00 0.00 51 1019.3
20260503071608 55 327 3.0 0.0 0.00 0.00 0.00 50 1019.7
20260503071505 56 14 2.0 0.0 0.00 0.00 0.00 52 1019.5
20260503071013 56 334 4.0 0.0 0.00 0.00 0.00 53 1019.8
20260503070939 56 322 3.0 10.0 0.00 0.00 0.00 54 1019.4
20260503070512 56 325 6.0 0.0 0.00 0.00 0.00 52 1019.7
20260503070122 55 319 5.0 0.0 0.00 0.00 0.00 52 1019.8
20260503060124 51 309 3.0 0.0 0.00 0.00 0.00 71 1019.4
20260503055007 51 261 3.0 0.0 0.00 0.00 0.00 74 1019.2
20260503054939 51 260 4.0 6.0 0.00 0.00 0.00 75 1019.0
20260503054600 50 266 3.0 0.0 0.00 0.00 0.00 75 1019.3
20260503054503 51 286 3.0 0.0 0.00 0.00 0.00 75 1019.3
20260503054026 50 276 5.0 0.0 0.00 0.00 0.00 76 1019.4
20260503053940 50 262 3.0 8.0 0.00 0.00 0.00 77 1019.1
20260503053515 50 270 5.0 0.0 0.00 0.00 0.00 78 1019.4
20260503053106 50 267 5.0 0.0 0.00 0.00 0.00 78 1019.3
20260503053013 50 257 5.0 0.0 0.00 0.00 0.00 78 1019.2
20260503052939 50 268 5.0 8.0 0.00 0.00 0.00 78 1019.0
20260503052501 50 271 4.0 0.0 0.00 0.00 0.00 79 1019.2
20260503052013 50 296 3.0 0.0 0.00 0.00 0.00 82 1019.3
20260503051940 50 298 4.0 7.0 0.00 0.00 0.00 82 1018.9
20260503051607 49 281 2.0 0.0 0.00 0.00 0.00 83 1019.1
20260503051510 49 236 2.0 0.0 0.00 0.00 0.00 83 1019.1
20260503051023 49 234 2.0 0.0 0.00 0.00 0.00 85 1019.1
20260503050939 48 236 1.0 3.0 0.00 0.00 0.00 85 1019.0
20260503050512 48 244 2.0 0.0 0.00 0.00 0.00 86 1019.2
20260503050052 47 206 2.0 0.0 0.00 0.00 0.00 87 1019.2
20260503050005 48 222 1.0 0.0 0.00 0.00 0.00 87 1019.0
20260503045512 47 185 2.0 0.0 0.00 0.00 0.00 88 1019.1
20260503044959 47 184 2.0 0.0 0.00 0.00 0.00 89 1019.0
20260503044941 47 184 2.0 3.0 0.00 0.00 0.00 89 1018.7
20260503044544 46 165 1.0 0.0 0.00 0.00 0.00 89 1019.0
20260503044511 46 165 1.0 0.0 0.00 0.00 0.00 89 1019.0
20260503044006 46 159 0.0 0.0 0.00 0.00 0.00 90 1019.0
20260503043940 46 159 0.0 1.0 0.00 0.00 0.00 89 1018.7
20260503043510 45 159 0.0 0.0 0.00 0.00 0.00 89 1019.2
20260503043045 45 101 1.0 0.0 0.00 0.00 0.00 90 1019.1
20260503043001 45 105 2.0 0.0 0.00 0.00 0.00 90 1019.1
20260503042513 45 105 3.0 0.0 0.00 0.00 0.00 90 1019.0
20260503042001 44 98 3.0 0.0 0.00 0.00 0.00 90 1019.1
20260503041649 43 118 3.0 0.0 0.00 0.00 0.00 90 1019.0
20260503041541 44 117 3.0 0.0 0.00 0.00 0.00 90 1019.0
20260503041008 43 113 2.0 0.0 0.00 0.00 0.00 89 1019.0
20260503040506 43 122 2.0 0.0 0.00 0.00 0.00 89 1018.8
20260503040132 42 196 2.0 0.0 0.00 0.00 0.00 88 1018.9
20260503040040 42 196 2.0 0.0 0.00 0.00 0.00 88 1018.8
20260503035535 42 195 3.0 0.0 0.00 0.00 0.00 88 1018.7
20260503035003 42 182 3.0 0.0 0.00 0.00 0.00 88 1018.7
20260503034941 42 182 3.0 3.0 0.00 0.00 0.00 88 1018.3
20260503034611 42 182 3.0 0.0 0.00 0.00 0.00 88 1018.7
20260503034457 42 182 3.0 0.0 0.00 0.00 0.00 88 1018.7
20260503034015 42 183 3.0 0.0 0.00 0.00 0.00 88 1018.6
20260503033940 42 183 3.0 5.0 0.00 0.00 0.00 88 1018.3
20260503033504 42 189 3.0 0.0 0.00 0.00 0.00 88 1018.5
20260503033103 42 184 2.0 0.0 0.00 0.00 0.00 87 1018.5
20260503033016 42 184 2.0 0.0 0.00 0.00 0.00 87 1018.4
20260503032940 42 182 1.0 3.0 0.00 0.00 0.00 87 1018.2
20260503032507 42 182 2.0 0.0 0.00 0.00 0.00 87 1018.5
20260503032022 43 182 1.0 0.0 0.00 0.00 0.00 87 1018.4
20260503031940 43 116 0.0 3.0 0.00 0.00 0.00 88 1018.1
20260503031543 42 109 1.0 0.0 0.00 0.00 0.00 88 1018.4
20260503031514 43 109 1.0 0.0 0.00 0.00 0.00 87 1018.4
20260503031012 43 205 2.0 0.0 0.00 0.00 0.00 88 1018.4
20260503030531 43 212 2.0 0.0 0.00 0.00 0.00 87 1018.2
20260503030032 43 219 3.0 0.0 0.00 0.00 0.00 88 1018.2
20260503030015 43 221 3.0 0.0 0.00 0.00 0.00 88 1018.2
20260503025939 43 221 2.0 9.0 0.00 0.00 0.00 88 1018.0
20260503025513 43 232 4.0 0.0 0.00 0.00 0.00 88 1018.2
20260503024959 43 267 5.0 0.0 0.00 0.00 0.00 88 1018.3
20260503024940 43 273 5.0 9.0 0.00 0.00 0.00 88 1018.1
20260503024539 43 247 5.0 0.0 0.00 0.00 0.00 88 1018.3
20260503024511 43 248 6.0 0.0 0.00 0.00 0.00 88 1018.2
20260503024005 43 226 4.0 0.0 0.00 0.00 0.00 88 1018.1
20260503023940 43 221 6.0 8.0 0.00 0.00 0.00 88 1018.0
20260503023519 43 232 3.0 0.0 0.00 0.00 0.00 88 1018.4
20260503023046 43 238 4.0 0.0 0.00 0.00 0.00 88 1018.5
20260503023010 43 238 4.0 0.0 0.00 0.00 0.00 88 1018.4
20260503022940 43 234 3.0 6.0 0.00 0.00 0.00 88 1018.1
20260503022503 43 198 4.0 0.0 0.00 0.00 0.00 88 1018.4
20260503022010 43 225 3.0 0.0 0.00 0.00 0.00 88 1018.5
20260503021940 43 215 3.0 5.0 0.00 0.00 0.00 88 1018.2
20260503021546 43 196 3.0 0.0 0.00 0.00 0.00 88 1018.6
20260503021525 43 195 3.0 0.0 0.00 0.00 0.00 88 1018.5
20260503020959 43 195 3.0 0.0 0.00 0.00 0.00 87 1018.6
20260503020940 43 192 3.0 5.0 0.00 0.00 0.00 87 1018.3
20260503020518 43 177 3.0 0.0 0.00 0.00 0.00 87 1018.5
20260503020037 43 164 3.0 0.0 0.00 0.00 0.00 87 1018.6
20260503020009 43 161 2.0 0.0 0.00 0.00 0.00 87 1018.5
20260503015939 43 166 5.0 5.0 0.00 0.00 0.00 87 1018.3
20260503015506 43 90 0.0 0.0 0.00 0.00 0.00 87 1018.5
20260503015021 43 66 0.0 0.0 0.00 0.00 0.00 86 1018.7
20260503014940 43 66 0.0 3.0 0.00 0.00 0.00 86 1018.4
20260503014547 43 66 3.0 0.0 0.00 0.00 0.00 86 1018.8
20260503014513 43 66 4.0 0.0 0.00 0.00 0.00 86 1018.7
20260503014009 43 66 4.0 0.0 0.00 0.00 0.00 86 1018.9
20260503013941 43 78 5.0 10.0 0.00 0.00 0.00 86 1018.5
20260503013516 44 46 2.0 0.0 0.00 0.00 0.00 85 1018.9
20260503013056 43 199 3.0 0.0 0.00 0.00 0.00 84 1018.6
20260503013011 44 199 3.0 0.0 0.00 0.00 0.00 84 1018.6
20260503012940 44 199 3.0 5.0 0.00 0.00 0.00 84 1018.4
20260503012527 44 199 3.0 0.0 0.00 0.00 0.00 84 1018.4
20260503012023 44 203 3.0 0.0 0.00 0.00 0.00 84 1018.3
20260503011940 44 205 3.0 5.0 0.00 0.00 0.00 84 1018.2
20260503011614 44 214 4.0 0.0 0.00 0.00 0.00 84 1018.4
20260503011534 44 215 4.0 0.0 0.00 0.00 0.00 84 1018.3
20260503011031 44 225 5.0 0.0 0.00 0.00 0.00 84 1018.2
20260503010941 44 217 3.0 10.0 0.00 0.00 0.00 84 1017.6
20260503010524 44 196 6.0 0.0 0.00 0.00 0.00 84 1017.9
20260503010145 44 208 6.0 0.0 0.00 0.00 0.00 84 1018.1
20260503010058 44 205 5.0 0.0 0.00 0.00 0.00 84 1018.2
20260503005939 44 225 6.0 7.0 0.00 0.00 0.00 84 1017.8
20260503005508 44 231 5.0 0.0 0.00 0.00 0.00 84 1018.2
20260503005000 44 225 5.0 0.0 0.00 0.00 0.00 84 1018.4
20260503004942 44 226 4.0 7.0 0.00 0.00 0.00 84 1018.0
20260503004607 44 231 5.0 0.0 0.00 0.00 0.00 84 1018.4
20260503004516 44 221 5.0 0.0 0.00 0.00 0.00 84 1018.1
20260503004003 45 221 4.0 0.0 0.00 0.00 0.00 84 1018.2
20260503003941 45 221 4.0 7.0 0.00 0.00 0.00 84 1017.9
20260503003516 45 203 4.0 0.0 0.00 0.00 0.00 84 1018.1